User: anonymous   Login
Location: Unspecified
(0.0000°N, 0.0000°E)
Time: 05:47:15
(UTC+00:00)
Language:

TBA - TO BE ASSIGNED - Orbit

View from above orbital plane
View from above orbital plane
View from above satellite
View from above satellite

Ground track
Ground track

The orbit is defined by the following mean orbital elements,

1 67743U          26145.12120317 +.00000000 +00000-0 +45255-3 0 00009
2 67743  97.2851 198.7134 0000645 111.5286 248.6026 15.33461026    02
Epoch (UTC): 25 May 2026 02:54:31
Eccentricity: 0.0000645
inclination: 97.2851°
perigee height: 465 km
apogee height: 466 km
right ascension of ascending node: 198.7134°
argument of perigee: 111.5286°
revolutions per day: 15.33461026
mean anomaly at epoch: 248.6026°

The dashed part of the orbit path shows where the satellite is in the earth's shadow,  

DLR